Regional Weather Roundup
Issued by NWS

Home | Current Version | Previous Version | Graphics & Text | Print | Product List | Glossary On
Versions: 1 2 3 4 5 6 7 8 9 10 11 12 13 14 15 16 17 18 19 20 21 22 23 24 25 26 27 28
000
ASUS45 KBOU 180306
RWRCO

WEATHER ROUNDUP FOR COLORADO
NATIONAL WEATHER SERVICE DENVER/BOULDER CO
900 PM MDT THU APR 17 2014

NOTE: "FAIR" INDICATES FEW OR NO CLOUDS BELOW 12000 FEET WITH NO
SIGNIFICANT WEATHER AND/OR OBSTRUCTIONS TO VISIBILITY.

COZ001>005-013-030-031-180400-
...NORTHWEST COLORADO...

CITY           SKY/WX    TMP DP  RH WIND       PRES   REMARKS
CRAIG          PTCLDY    43  26  51 VRB3      30.03R
HAYDEN         PTCLDY    50  21  32 CALM      30.07R
MEEKER         CLEAR     49  24  37 W6        30.05R
MOUNT WERNER   PTCLDY    37  14  38 SW10      30.21R
STEAMBOAT SPGS PTCLDY    48  19  30 CALM      30.06R
WALDEN         MOCLDY    37  21  52 SE6       30.10R
$$

COZ006>008-011-180400-
...WEST CENTRAL VALLEYS...

CITY           SKY/WX    TMP DP  RH WIND       PRES   REMARKS
GRAND JUNCTION PTCLDY    53  26  35 NE5       30.00R
MONTROSE       CLEAR     54  28  36 SE3       30.06R
EAGLE          PTCLDY    48  21  34 CALM      30.09R
RIFLE          CLEAR     50  26  39 SE7       30.03R
DELTA          CLEAR     60  26  27 CALM      30.02R
NUCLA            N/A     59  21  23 SW5       30.10R
$$

COZ017>023-064>068-180400-
...SOUTHWEST COLORADO...

CITY           SKY/WX    TMP DP  RH WIND       PRES   REMARKS
DURANGO        CLEAR     52  16  24 SW7       30.12R
CORTEZ         CLEAR     47  23  38 NE6       30.09R
PAGOSA SPRINGS CLEAR     47  17  29 CALM      30.18R
TELLURIDE      PTCLDY    45  23  42 E8        30.21R
WOLF CREEK PAS CLEAR     30  18  59 SW20G26   30.32R WCI  18
$$

COZ009-010-012-014-032>034-037-058>063-180400-
...CENTRAL COLORADO...

CITY           SKY/WX    TMP DP  RH WIND       PRES   REMARKS
ASPEN          PTCLDY    47  20  34 SE8       30.13R
BUENA VISTA    PTCLDY    47  19  32 W10       30.12R
COPPER MTN     MOCLDY    34  18  51 SW15      30.26R WCI  24
BERTHOUD PASS  FAIR      27  18  69 W16G26    30.26R WCI  14
COTTONWOOD PAS PTCLDY    43  14  31 W7        30.20R
GUNNISON       CLEAR     46  19  34 N6        30.17R
KREMMLING      MOCLDY    48  18  29 CALM      30.10R
LEADVILLE      PTCLDY    35  16  45 N6        30.19R WCI  30
MONARCH PASS   PTCLDY    32  16  51 W26       30.38S WCI  18
SALIDA         PTCLDY    50  17  27 CALM      30.19R
SUNLIGHT       CLEAR     34  25  69 CALM      30.24S
WILKERSON PASS MOCLDY    32  21  64 S6        30.26R WCI  26
$$

COZ069>075-180400-
...SAN LUIS VALLEY/SANGRE DE CRISTO MOUNTAINS...

CITY           SKY/WX    TMP DP  RH WIND       PRES   REMARKS
ALAMOSA        CLEAR     46  28  49 SW10      30.12R
LA VETA PASS   PTCLDY    37  27  65 SW9       30.21S
SAGUACHE       NOT AVBL
$$

COZ035-036-038>040-180400-
...NORTHERN COLORADO FRONT RANGE...

CITY           SKY/WX    TMP DP  RH WIND       PRES   REMARKS
DENVER INTL AP PTCLDY    48  33  56 S15       30.00R
DMNS CITY PARK   N/A     54  33  45 S7G15     29.99R
AURORA         MOCLDY    52  32  46 S23G31    30.01R
FRONT RANGE AP NOT AVBL
ERIE MUNI ARPT PTCLDY    52  34  50 CALM      29.98R
BOULDER MUN AP PTCLDY    54  30  40 SW3       29.98R
CENTENNIAL     PTCLDY    50  31  48 S15       30.01R
BROOMFIELD     PTCLDY    54  32  43 CALM      30.00R
FORT COLLINS   CLEAR     50  27  40 NE7       30.00S
LONGMONT       CLEAR     48  33  56 NW6       30.00R
$$

COZ041-046-047-076>085-087-088-180400-
...PIKES PEAK/PALMER DIVIDE AND SOUTHERN FOOTHILLS...

CITY           SKY/WX    TMP DP  RH WIND       PRES   REMARKS
COLO. SPRINGS  PTCLDY    46  32  58 SE14      30.10R
A. F. ACADEMY  PTCLDY    46  31  57 SE10      30.10R
ELLICOTT       NOT AVBL
FALCON         PTCLDY    40  31  72 SE6       30.13R
FORT CARSON    PTCLDY    47  33  58 S6        30.09R
LIMON          CLEAR     42  34  73 SE15      30.11R
MONUMENT HILL  CLEAR     41  30  65 S23       30.07R
TRINIDAD       CLEAR     47  36  65 W9        30.10S
$$

COZ042>045-048>051-090-091-180400-
...NORTHEAST COLORADO...

CITY           SKY/WX    TMP DP  RH WIND       PRES   REMARKS
GREELEY ARPT   CLEAR     52  32  46 S9        29.99R
AKRON          CLEAR     48  35  60 S20G28    30.04R
BURLINGTON     CLEAR     43  37  79 S21       30.12R
WRAY           CLEAR     48  39  70 SE10      30.10R
STERLING       CLEAR     54  37  54 S13       30.01R
HOLYOKE        CLEAR     46  37  71 S15       30.07R
FORT MORGAN    CLEAR     51  33  48 S17G23    30.02R
$$

COZ086-089-092>099-180400-
...SOUTHEAST COLORADO...

CITY           SKY/WX    TMP DP  RH WIND       PRES   REMARKS
PUEBLO         CLEAR     51  36  56 E9        30.05R
LA JUNTA       CLEAR     50  36  58 SE13      30.08R
LAMAR          CLEAR     47  37  68 SE17G26   30.11S
SPRINGFIELD      N/A     40  33  76 S15       30.18R
$$



USA.gov is the U.S. government's official web portal to all federal, state and local government web resources and services.